Weather History for Annette Island, AK

Change the Weather History Date:

Tuesday, March 19, 2013

  Actual Average Record
Temperature  
Mean Temperature 37 °F 40 °F  
Max Temperature 41 °F 45 °F 57 °F (1981)
Min Temperature 33 °F 35 °F 23 °F (2002)
Degree Days  
Heating Degree Days 28 25  
Month to date heating degree days 518 495  
Since 1 July heating degree days 5044 5033  
Cooling Degree Days 0    
Month to date cooling degree days 0  
Year to date cooling degree days 0  
Moisture  
Dew Point 33 °F    
Average Humidity 0    
Maximum Humidity 0    
Minimum Humidity 0    
Precipitation  
Precipitation 0.36 in 0.27 in 1.22 in (1960)
Month to date precipitation 3.65 4.83  
Year to date precipitation 25.21 22.87  
Snow  
Snow 0.30 in 0.20 in 3.10 in (2012)
Month to date snowfall 0.5 4.8  
Since 1 July snowfall 12.4 31.3  
Snow Depth 0.00 in    
Sea Level Pressure  
Sea Level Pressure 29.69 in    
Wind  
Wind Speed 7 mph (SSE)    
Max Wind Speed 22 mph    
Max Gust Speed 36 mph    
Visibility 7 miles    
Events Rain , Snow    
T = Trace of Precipitation, MM = Missing Value Source: NWS Daily Summary

Daily Weather History Graph

Daily Weather History Graph

Search for Another Location

Airport:

Trip Planner

Search our weather history database for the weather conditions in past years. The results will help you decide how hot, cold, wet, or windy it might be!

Date:

Astronomy

Mar. 19, 2013 Rise Set
Actual Time 6:50 AM AKDT 6:58 PM AKDT
Civil Twilight 6:13 AM AKDT 7:35 PM AKDT
Nautical Twilight 5:31 AM AKDT 8:18 PM AKDT
Astronomical Twilight 4:45 AM AKDT 9:03 PM AKDT
Moon 10:51 AM AKDT (3/19) 2:46 AM AKDT (3/19)
Length of Visible Light 13h 21m
Length of Day
12h 08m
Waxing Crescent, 51% of the Moon is Illuminated
Mar 19
Waxing Crescent
Mar 27
Full
Apr 2
Last Quarter
Apr 10
New
Apr 18
First Quarter

Hourly Weather History & Observations

Time (AKDT) Temp. Windchill Dew Point Humidity Pressure Visibility Wind Dir Wind Speed Gust Speed Precip Events Conditions
12:02 AM 35.6 °F 30.7 °F 33.8 °F 93% 29.98 in 4.0 mi Variable 5.8 mph - 0.03 in Snow Light Snow
12:27 AM 37.4 °F 31.4 °F 33.8 °F 87% 29.96 in 10.0 mi South 8.1 mph - 0.03 in   Overcast
12:53 AM 37.9 °F 31.5 °F 30.9 °F 76% 29.96 in 10.0 mi South 9.2 mph 17.3 mph 0.03 in Rain Light Rain
1:53 AM 37.9 °F 30.9 °F 30.0 °F 73% 29.95 in 10.0 mi South 10.4 mph 21.9 mph 0.00 in   Overcast
2:53 AM 37.9 °F 32.7 °F 30.9 °F 76% 29.93 in 10.0 mi South 6.9 mph - N/A   Overcast
3:53 AM 37.9 °F 32.1 °F 30.9 °F 76% 29.91 in 10.0 mi South 8.1 mph - N/A   Overcast
4:53 AM 37.9 °F 30.9 °F 33.1 °F 83% 29.87 in 10.0 mi South 10.4 mph 20.7 mph 0.00 in   Overcast
5:53 AM 37.9 °F 32.7 °F 33.1 °F 83% 29.85 in 10.0 mi South 6.9 mph 17.3 mph 0.01 in Rain Light Rain
6:11 AM 37.4 °F 30.3 °F 33.8 °F 87% 29.83 in 10.0 mi South 10.4 mph 19.6 mph 0.00 in   Overcast
6:22 AM 39.2 °F 33.6 °F 33.8 °F 81% 29.82 in 10.0 mi South 8.1 mph 17.3 mph 0.00 in   Overcast
6:33 AM 37.4 °F 29.8 °F 33.8 °F 87% 29.81 in 10.0 mi SSE 11.5 mph 18.4 mph 0.00 in   Overcast
6:53 AM 39.0 °F 32.8 °F 32.0 °F 76% 29.81 in 10.0 mi SSE 9.2 mph 17.3 mph 0.00 in   Overcast
7:22 AM 39.2 °F 33.6 °F 32.0 °F 75% 29.80 in 10.0 mi South 8.1 mph 20.7 mph N/A   Overcast
7:53 AM 39.9 °F 32.9 °F 34.0 °F 79% 29.79 in 10.0 mi SSE 11.5 mph 21.9 mph N/A   Overcast
8:18 AM 41.0 °F 34.3 °F 33.8 °F 76% 29.77 in 10.0 mi South 11.5 mph 19.6 mph N/A   Overcast
8:53 AM 39.0 °F 30.3 °F 33.1 °F 79% 29.77 in 10.0 mi South 16.1 mph 26.5 mph 0.00 in Rain Light Rain
9:07 AM 37.4 °F 30.8 °F 33.8 °F 87% 29.76 in 7.0 mi South 9.2 mph 17.3 mph 0.01 in Rain , Snow Light Rain
9:53 AM 39.0 °F 31.4 °F 35.1 °F 86% 29.75 in 10.0 mi SSE 12.7 mph 26.5 mph 0.03 in Rain Light Rain
10:53 AM 37.9 °F 28.5 °F 36.0 °F 93% 29.72 in 5.0 mi SE 17.3 mph 27.6 mph 0.07 in Rain Rain
11:37 AM 35.6 °F 28.0 °F 33.8 °F 93% 29.73 in 2.5 mi South 10.4 mph 20.7 mph 0.07 in Rain , Snow Light Rain
11:44 AM 35.6 °F 29.9 °F 33.8 °F 93% 29.72 in 5.0 mi SSE 6.9 mph 18.4 mph 0.09 in Rain , Snow Light Rain
11:51 AM 35.6 °F 29.2 °F 33.8 °F 93% 29.72 in 8.0 mi SSE 8.1 mph - 0.09 in Rain , Snow Light Rain
11:53 AM 36.0 °F 30.3 °F 34.0 °F 93% 29.73 in 10.0 mi SSE 6.9 mph - 0.09 in Rain , Snow Light Rain
12:34 PM 37.4 °F 32.8 °F 33.8 °F 87% 29.71 in 10.0 mi ESE 5.8 mph - 0.00 in Rain Light Rain
12:53 PM 36.0 °F 32.1 °F 34.0 °F 93% 29.71 in 10.0 mi ESE 4.6 mph - 0.00 in Rain Light Rain
1:11 PM 37.4 °F 33.8 °F 35.6 °F 93% 29.71 in 10.0 mi SE 4.6 mph - 0.00 in Rain Light Rain
1:53 PM 39.9 °F 37.8 °F 35.1 °F 83% 29.70 in 10.0 mi South 3.5 mph - 0.00 in Rain Light Rain
2:12 PM 39.2 °F 35.0 °F 32.0 °F 75% 29.69 in 10.0 mi SSW 5.8 mph - 0.00 in Rain Light Rain
2:48 PM 41.0 °F - 33.8 °F 76% 29.68 in 10.0 mi Calm Calm - 0.00 in Rain Light Rain
2:53 PM 41.0 °F - 33.1 °F 73% 29.69 in 10.0 mi Calm Calm - 0.00 in   Overcast
3:53 PM 39.9 °F - 32.0 °F 73% 29.67 in 10.0 mi Calm Calm - 0.00 in Rain Light Rain
4:17 PM 39.2 °F - 35.6 °F 87% 29.65 in 8.0 mi Calm Calm - 0.01 in Rain Light Rain
4:37 PM 39.2 °F - 35.6 °F 87% 29.64 in 10.0 mi Calm Calm - 0.01 in Rain Light Rain
4:53 PM 39.0 °F - 35.1 °F 86% 29.64 in 10.0 mi Calm Calm - 0.02 in Rain Light Rain
5:20 PM 37.4 °F - 30.2 °F 75% 29.62 in 10.0 mi Calm Calm - 0.00 in Rain Light Rain
5:53 PM 35.1 °F 32.2 °F 33.1 °F 92% 29.62 in 9.0 mi East 3.5 mph - 0.01 in Rain Light Rain
6:08 PM 35.6 °F 31.7 °F 33.8 °F 93% 29.61 in 10.0 mi ESE 4.6 mph - 0.00 in   Overcast
6:29 PM 33.8 °F - 33.8 °F 100% 29.60 in 4.0 mi Calm Calm - 0.00 in Snow Light Snow
6:37 PM 33.8 °F - 32.0 °F 93% 29.60 in 1.8 mi Calm Calm - 0.01 in Snow Light Snow
6:53 PM 33.1 °F - 32.0 °F 96% 29.60 in 1.0 mi Calm Calm - 0.03 in Snow Light Snow
7:10 PM 33.8 °F - 32.0 °F 93% 29.59 in 3.0 mi Calm Calm - 0.01 in Snow Light Snow
7:30 PM 33.8 °F - 32.0 °F 93% 29.58 in 2.5 mi Calm Calm - 0.02 in Snow Light Snow
7:37 PM 33.8 °F - 32.0 °F 93% 29.58 in 3.0 mi Calm Calm - 0.02 in Snow Light Snow
7:44 PM 33.8 °F - 32.0 °F 93% 29.58 in 4.0 mi Calm Calm - 0.02 in Snow Light Snow
7:53 PM 33.1 °F - 32.0 °F 96% 29.58 in 3.0 mi Calm Calm - 0.02 in Snow Light Snow
8:53 PM 33.1 °F 30.0 °F 32.0 °F 96% 29.56 in 4.0 mi NNW 3.5 mph - 0.01 in Snow Light Snow
9:06 PM 33.8 °F 29.6 °F 32.0 °F 93% 29.55 in 5.0 mi NW 4.6 mph - 0.00 in Snow Light Snow
9:35 PM 33.8 °F 27.0 °F 32.0 °F 93% 29.54 in 3.0 mi NNW 8.1 mph - 0.01 in Snow Light Snow
9:53 PM 33.1 °F 26.9 °F 32.0 °F 96% 29.54 in 4.0 mi NNW 6.9 mph - 0.02 in Snow Light Snow
10:08 PM 33.8 °F 29.6 °F 32.0 °F 93% 29.52 in 2.5 mi Variable 4.6 mph - 0.00 in Snow Light Snow
10:18 PM 33.8 °F 27.7 °F 32.0 °F 93% 29.52 in 3.0 mi North 6.9 mph - 0.00 in Snow Light Snow
10:28 PM 33.8 °F 27.7 °F 32.0 °F 93% 29.52 in 4.0 mi NNW 6.9 mph - 0.00 in Snow Light Snow
10:48 PM 33.8 °F 28.6 °F 32.0 °F 93% 29.51 in 3.0 mi NNW 5.8 mph - 0.01 in Snow Light Snow
10:53 PM 33.1 °F 28.7 °F 32.0 °F 96% 29.51 in 3.0 mi NNW 4.6 mph - 0.01 in Snow Light Snow
11:02 PM 33.8 °F 28.6 °F 32.0 °F 93% 29.50 in 2.0 mi NNW 5.8 mph - 0.00 in Snow Light Snow
11:35 PM 33.8 °F 28.6 °F 32.0 °F 93% 29.49 in 4.0 mi NNW 5.8 mph - 0.02 in Snow Light Snow
11:53 PM 33.1 °F 26.9 °F 32.0 °F 96% 29.49 in 2.0 mi NNW 6.9 mph - 0.02 in Snow Light Snow